STARLINK-4442 (53480 NORAD) Tracking and Keplerian Element Data

This shows tracking and keplerian element data for the satellite.

Feedback or suggestion? Click here.




ElementValue
Catalog53480
NameSTARLINK-4442
Epoch Orbit1521
Epoch Day324.83422415
Epoch Year2022
RAAN83.876
Inclination97.6568
Eccentricity0.0001783
Argument of Perigee137.7764
Mean Anonmoly222.3598
Mean Motion15.01264495
Decay Rate1.019E-05
L11 53480U 22099R 22324.83422415 .00001019 00000+0 83903-4 0 9991
L22 53480 97.6568 83.8760 0001783 137.7764 222.3598 15.01264495 15216



Live tracking and technical data element details for STARLINK-4442 (NORAD 53480). STARLINK-4442 can be tracked NOW for your location showing map with azimuth and elevation plus other details from your city location.







IsCatalogInMostPopularTable: catalog: 53480, numindb: 3
Update: records affected: 1



GetName: 53480 STARLINK-4442

Hit Count: updated at: Thu, 08 Dec 2022 18:59:35 GMT